Regional Weather Roundup
Issued by NWS

Home | Current Version | Previous Version | Graphics & Text | Print | Product List | Glossary On
Versions: 1 2 3 4 5 6 7 8 9 10 11 12 13 14 15 16 17 18 19 20 21 22 23 24 25 26 27 28 29 30 31 32 33 34 35 36 37 38 39 40 41 42 43 44 45 46 47 48 49 50
000
ASUS43 KOAX 012302
RWRNE

WEATHER ROUNDUP FOR NEBRASKA
NATIONAL WEATHER SERVICE OMAHA NE
600 PM CDT FRI AUG 01 2014

NOTES: SATELLITE DATA IS BEING USED TO AUGMENT CLOUD COVER ABOVE
       12000 FEET.
       "FAIR" INDICATES FEW OR NO CLOUDS BELOW 12,000 FEET WITH NO
       SIGNIFICANT WEATHER AND/OR OBSTRUCTIONS TO VISIBILITY.

  * THESE STATIONS DO NOT REPORT WEATHER SUCH AS RAIN...SNOW OR FOG.

NEZ001>004-019>022-054>056-020000-
NEBRASKA PANHANDLE

CITY           SKY/WX    TMP DP  RH WIND       PRES   REMARKS
SCOTTSBLUFF    SUNNY     90  39  16 E8        30.14F
ALLIANCE       MOSUNNY   86  37  17 S8        30.13F
CHADRON        PTSUNNY   92  37  14 NW8       30.07S
SIDNEY         MOSUNNY   84  40  21 VRB3      30.19S
$$

NEZ057>060-069>072-079>082-020000-
SOUTHWEST NEBRASKA

CITY           SKY/WX    TMP DP  RH WIND       PRES   REMARKS
NORTH PLATTE   MOSUNNY   89  49  25 CALM      30.09F
IMPERIAL       SUNNY     90  42  18 NE6       30.12F
MCCOOK         CLOUDY    88  54  31 NE12      30.10S
$$

NEZ005>010-023>029-035>040-094-020000-
NORTH CENTRAL NEBRASKA

CITY           SKY/WX    TMP DP  RH WIND       PRES   REMARKS
VALENTINE      SUNNY     92  45  19 S6        30.05F
BROKEN BOW     SUNNY     86  59  39 SE9       30.09F
ORD            SUNNY     83  57  41 SE8       30.08F
$$

NEZ041-046>049-061>064-073>077-083>087-020000-
SOUTH CENTRAL NEBRASKA

CITY           SKY/WX    TMP DP  RH WIND       PRES   REMARKS
GRAND ISLAND   SUNNY     83  56  39 NE10      30.10F
HASTINGS       SUNNY     83  53  35 NE10      30.10S
KEARNEY *      SUNNY     84  59  42 E10       30.11S
$$

NEZ011>018-030>034-042>045-020000-
NORTHEAST NEBRASKA

CITY           SKY/WX    TMP DP  RH WIND       PRES   REMARKS
NORFOLK        SUNNY     82  57  42 SE6       30.09S
COLUMBUS *     MOSUNNY   81  61  50 E6        30.09S
TEKAMAH        SUNNY     84  61  45 E7        30.07F
$$

NEZ050>053-065>068-078-088>093-020000-
SOUTHEAST NEBRASKA

CITY           SKY/WX    TMP DP  RH WIND       PRES   REMARKS
LINCOLN        SUNNY     83  58  42 E10G17    30.07F
OMAHA EPPLEY   MOSUNNY   82  59  45 E7        30.07F
FALLS CITY     SUNNY     84  61  45 E9        30.05S
$$

NEZ044-045-051>053-067-020000-
OMAHA AREA

CITY           SKY/WX    TMP DP  RH WIND       PRES   REMARKS
OMAHA EPPLEY   MOSUNNY   82  59  45 E7        30.07F
OFFUTT AFB     SUNNY     82  62  51 E8        30.07S
$$


USA.gov is the U.S. government's official web portal to all federal, state and local government web resources and services.